Monroe, MI

7:06 AM EDT on July 28, 2017 (GMT -0400)
Custer

Weather History for KTTF - December, 2013

Change the Weather History Date:

Monday, December 23, 2013

  Actual Average Record
Temperature  
Mean Temperature 28 °F -  
Max Temperature 35 °F 33 °F 61 °F (2015)
Min Temperature 21 °F 20 °F -11 °F (1989)
Degree Days  
Heating Degree Days 37    
Moisture  
Dew Point 24 °F    
Average Humidity 79    
Maximum Humidity 93    
Minimum Humidity 59    
Precipitation  
Precipitation 0.00 in - - ()
Sea Level Pressure  
Sea Level Pressure 30.17 in    
Wind  
Wind Speed 10 mph (West)    
Max Wind Speed 20 mph    
Max Gust Speed 23 mph    
Visibility 9 miles    
Events Snow    
Averages and records for this station are not official NWS values.
T = Trace of Precipitation, MM = Missing Value Source: NWS Daily Summary

Daily Weather History Graph

Daily Weather History Graph

Search for Another Location

Airport or City:

Trip Planner

Search our weather history database for the weather conditions in past years. The results will help you decide how hot, cold, wet, or windy it might be!

Date:

Astronomy

Dec. 23, 2013 Rise Set
Actual Time 7:59 AM EST 5:06 PM EST
Civil Twilight 7:27 AM EST 5:38 PM EST
Nautical Twilight 6:52 AM EST 6:13 PM EST
Astronomical Twilight 6:18 AM EST 6:47 PM EST
Moon 11:21 PM EST (12/23) 11:18 AM EST (12/23)
Length of Visible Light 10h 11m
Length of Day
9h 07m
Waning Gibbous, 68% of the Moon is Illuminated
Dec 23
Waning Gibbous
Dec 25
Last Quarter
Jan 1
New
Jan 7
First Quarter
Jan 15
Full

Hourly Weather History & Observations

Time (EST) Temp. Windchill Dew Point Humidity Pressure Visibility Wind Dir Wind Speed Gust Speed Precip Events Conditions
12:14 AM 35.6 °F 28.6 °F 32.0 °F 87% 29.96 in 10.0 mi SW 9.2 mph - N/A   Overcast
12:34 AM 35.6 °F 29.2 °F 32.0 °F 87% 29.97 in 10.0 mi SW 8.1 mph - N/A   Overcast
12:54 AM 35.6 °F 29.2 °F 32.0 °F 87% 29.97 in 10.0 mi WSW 8.1 mph - N/A   Overcast
1:14 AM 35.6 °F 29.2 °F 32.0 °F 87% 29.98 in 10.0 mi WSW 8.1 mph - N/A   Overcast
1:34 AM 35.6 °F 28.6 °F 32.0 °F 87% 29.99 in 10.0 mi SW 9.2 mph - N/A   Overcast
1:54 AM 33.8 °F 27.0 °F 30.2 °F 87% 29.99 in 10.0 mi WSW 8.1 mph - N/A   Overcast
2:14 AM 33.8 °F 26.4 °F 30.2 °F 87% 30.00 in 10.0 mi WSW 9.2 mph - N/A   Overcast
2:34 AM 33.8 °F 27.0 °F 30.2 °F 87% 30.00 in 10.0 mi WSW 8.1 mph - N/A   Overcast
2:54 AM 33.8 °F 26.4 °F 30.2 °F 87% 30.01 in 10.0 mi WSW 9.2 mph - N/A   Overcast
3:15 AM 33.8 °F 24.8 °F 30.2 °F 87% 30.02 in 10.0 mi West 12.7 mph 18.4 mph N/A   Overcast
3:35 AM 33.8 °F 25.3 °F 30.2 °F 87% 30.03 in 4.0 mi West 11.5 mph - N/A Snow Light Snow
3:55 AM 33.8 °F 27.7 °F 30.2 °F 87% 30.03 in 10.0 mi West 6.9 mph - N/A   Overcast
4:15 AM 33.8 °F 25.8 °F 30.2 °F 87% 30.03 in 10.0 mi West 10.4 mph - N/A   Overcast
4:35 AM 33.8 °F 25.3 °F 30.2 °F 87% 30.04 in 10.0 mi West 11.5 mph - N/A   Overcast
4:55 AM 33.8 °F 25.8 °F 28.4 °F 81% 30.05 in 10.0 mi West 10.4 mph - N/A   Overcast
5:15 AM 33.8 °F 27.7 °F 28.4 °F 81% 30.04 in 10.0 mi West 6.9 mph - N/A   Overcast
5:35 AM 33.8 °F 27.7 °F 30.2 °F 87% 30.05 in 10.0 mi West 6.9 mph - N/A   Overcast
5:55 AM 32.0 °F 25.6 °F 28.4 °F 87% 30.06 in 7.0 mi WNW 6.9 mph - N/A   Overcast
6:16 AM 32.0 °F 27.5 °F 30.2 °F 93% 30.07 in 10.0 mi West 4.6 mph - N/A   Overcast
6:36 AM 32.0 °F 26.4 °F 30.2 °F 93% 30.08 in 5.0 mi West 5.8 mph - N/A   Overcast
6:56 AM 32.0 °F 27.5 °F 30.2 °F 93% 30.09 in 4.0 mi West 4.6 mph - N/A   Overcast
7:16 AM 32.0 °F 26.4 °F 30.2 °F 93% 30.10 in 7.0 mi West 5.8 mph - N/A   Overcast
7:36 AM 30.2 °F 24.3 °F 28.4 °F 93% 30.11 in 7.0 mi West 5.8 mph - N/A   Overcast
7:56 AM 30.2 °F 21.9 °F 28.4 °F 93% 30.13 in 10.0 mi West 9.2 mph - N/A   Overcast
8:16 AM 30.2 °F 21.3 °F 26.6 °F 86% 30.14 in 10.0 mi WNW 10.4 mph - N/A   Overcast
8:36 AM 30.2 °F 22.6 °F 26.6 °F 86% 30.15 in 10.0 mi WNW 8.1 mph - N/A   Overcast
8:57 AM 30.2 °F 21.9 °F 28.4 °F 93% 30.16 in 4.0 mi West 9.2 mph - N/A Snow Light Snow
9:17 AM 30.2 °F 23.4 °F 28.4 °F 93% 30.17 in 3.0 mi West 6.9 mph - N/A Snow Light Snow
9:37 AM 30.2 °F 22.6 °F 28.4 °F 93% 30.18 in 2.5 mi West 8.1 mph - N/A Snow Light Snow
9:52 AM 30.2 °F 22.6 °F 28.4 °F 93% 30.19 in 2.5 mi West 8.1 mph - N/A Snow Light Snow
10:12 AM 30.2 °F 22.6 °F 28.4 °F 93% 30.20 in 2.5 mi West 8.1 mph - N/A Snow Light Snow
10:32 AM 30.2 °F 22.6 °F 28.4 °F 93% 30.21 in 3.0 mi West 8.1 mph - N/A Snow Light Snow
10:52 AM 30.2 °F 24.3 °F 28.4 °F 93% 30.22 in 1.8 mi West 5.8 mph - N/A Snow Light Snow
11:12 AM 30.2 °F 20.8 °F 26.6 °F 86% 30.22 in 1.0 mi West 11.5 mph 19.6 mph N/A Snow Light Snow
11:32 AM 30.2 °F 19.8 °F 26.6 °F 86% 30.22 in 5.0 mi West 13.8 mph 17.3 mph N/A Snow Light Snow
11:52 AM 32.0 °F 21.6 °F 24.8 °F 75% 30.22 in 10.0 mi West 15.0 mph 21.9 mph N/A   Overcast
12:12 PM 32.0 °F 21.2 °F 24.8 °F 75% 30.22 in 10.0 mi West 16.1 mph 20.7 mph N/A   Overcast
12:32 PM 30.2 °F 18.5 °F 24.8 °F 80% 30.22 in 10.0 mi West 17.3 mph 21.9 mph N/A   Overcast
12:53 PM 30.2 °F 17.8 °F 21.2 °F 69% 30.22 in 10.0 mi West 19.6 mph - N/A   Overcast
1:13 PM 30.2 °F 18.9 °F 21.2 °F 69% 30.23 in 10.0 mi West 16.1 mph 23.0 mph N/A   Overcast
1:33 PM 30.2 °F 18.9 °F 21.2 °F 69% 30.23 in 10.0 mi West 16.1 mph - N/A   Overcast
1:53 PM 30.2 °F 18.1 °F 21.2 °F 69% 30.24 in 10.0 mi West 18.4 mph - N/A   Overcast
2:13 PM 30.2 °F 20.2 °F 19.4 °F 64% 30.24 in 10.0 mi West 12.7 mph - N/A   Overcast
2:33 PM 30.2 °F 20.2 °F 21.2 °F 69% 30.24 in 10.0 mi West 12.7 mph 17.3 mph N/A   Overcast
2:53 PM 30.2 °F 18.9 °F 21.2 °F 69% 30.24 in 10.0 mi West 16.1 mph 19.6 mph N/A   Overcast
3:14 PM 30.2 °F 20.8 °F 19.4 °F 64% 30.24 in 10.0 mi West 11.5 mph - N/A   Overcast
3:34 PM 30.2 °F 20.2 °F 21.2 °F 69% 30.24 in 10.0 mi West 12.7 mph 16.1 mph N/A   Overcast
3:54 PM 30.2 °F 22.6 °F 21.2 °F 69% 30.25 in 10.0 mi West 8.1 mph - N/A   Overcast
4:14 PM 30.2 °F 21.3 °F 21.2 °F 69% 30.25 in 10.0 mi West 10.4 mph - N/A   Overcast
4:34 PM 30.2 °F 21.3 °F 21.2 °F 69% 30.26 in 10.0 mi WSW 10.4 mph - N/A   Overcast
4:54 PM 30.2 °F 20.2 °F 21.2 °F 69% 30.26 in 10.0 mi WSW 12.7 mph - N/A   Overcast
5:14 PM 28.4 °F 19.1 °F 21.2 °F 74% 30.26 in 10.0 mi WSW 10.4 mph - N/A   Overcast
5:34 PM 28.4 °F 18.5 °F 21.2 °F 74% 30.27 in 10.0 mi WSW 11.5 mph - N/A   Overcast
5:54 PM 28.4 °F 19.1 °F 21.2 °F 74% 30.27 in 10.0 mi WSW 10.4 mph - N/A   Overcast
6:14 PM 28.4 °F 18.5 °F 23.0 °F 80% 30.28 in 10.0 mi WSW 11.5 mph - N/A   Overcast
6:34 PM 28.4 °F 17.5 °F 21.2 °F 74% 30.28 in 10.0 mi WSW 13.8 mph - N/A   Overcast
6:54 PM 28.4 °F 17.5 °F 19.4 °F 69% 30.28 in 10.0 mi WSW 13.8 mph 19.6 mph N/A   Overcast
7:15 PM 28.4 °F 16.6 °F 19.4 °F 69% 30.29 in 10.0 mi WSW 16.1 mph 20.7 mph N/A   Overcast
7:35 PM 28.4 °F 19.1 °F 17.6 °F 64% 30.29 in 10.0 mi West 10.4 mph - N/A   Overcast
7:55 PM 28.4 °F 20.4 °F 17.6 °F 64% 30.29 in 10.0 mi West 8.1 mph - N/A   Overcast
8:15 PM 28.4 °F 18.5 °F 17.6 °F 64% 30.29 in 10.0 mi West 11.5 mph - N/A   Overcast
8:35 PM 28.4 °F 19.7 °F 19.4 °F 69% 30.28 in 10.0 mi West 9.2 mph - N/A   Overcast
8:55 PM 28.4 °F 19.7 °F 19.4 °F 69% 30.28 in 10.0 mi WSW 9.2 mph - N/A   Overcast
9:15 PM 26.6 °F 17.5 °F 19.4 °F 74% 30.28 in 10.0 mi West 9.2 mph - N/A   Overcast
9:35 PM 26.6 °F 17.5 °F 17.6 °F 69% 30.28 in 10.0 mi West 9.2 mph - N/A   Overcast
9:56 PM 26.6 °F 15.2 °F 17.6 °F 69% 30.28 in 10.0 mi West 13.8 mph 19.6 mph N/A   Overcast
10:16 PM 24.8 °F 11.9 °F 15.8 °F 69% 30.29 in 10.0 mi West 16.1 mph 23.0 mph N/A   Overcast
10:36 PM 24.8 °F 12.4 °F 12.2 °F 59% 30.29 in 10.0 mi West 15.0 mph 23.0 mph N/A   Overcast
10:56 PM 23.0 °F 11.1 °F 14.0 °F 68% 30.29 in 10.0 mi West 12.7 mph - N/A   Overcast
11:16 PM 23.0 °F 11.1 °F 14.0 °F 68% 30.29 in 10.0 mi West 12.7 mph 19.6 mph N/A   Overcast
11:36 PM 21.2 °F 8.9 °F 12.2 °F 68% 30.29 in 10.0 mi West 12.7 mph - N/A   Overcast
11:56 PM 21.2 °F 8.9 °F 12.2 °F 68% 30.29 in 10.0 mi West 12.7 mph - N/A   Scattered Clouds